Lid_Strength_Index
2 3 6 7 10 11 14 13 9 9 8 6 6 7 7 7 8 11 3 1 0 0 -0 -0 -1 -1 -1 -1 -1 -1 -1 -1 -1 -1 -1 -1 -1 -1 -1 -1 -1 -1 -1 -1 -1 -1 -1 -1 -1
7 5 10 10 12 15 14 10 10 8 7 6 6 6 7 8 5 4 4 1 -0 -0 0 -0 -1 -1 -1 -1 -1 -1 -1 -1 -1 -1 -1 -1 -1 -1 -1 -1 -1 -1 -1 -1 -1 -1 -1 -1 -1
7 10 13 12 12 15 14 10 9 7 6 6 7 5 6 7 4 4 1 0 -0 0 0 -0 -1 -1 -1 -1 -1 -1 -1 -1 -1 -1 -1 -1 -1 -1 -1 -1 -1 -1 -1 -1 -1 -1 -1 -1 -1
9 10 13 15 15 11 10 10 7 7 6 6 6 8 5 3 3 2 0 0 0 0 0 -0 -1 -1 -1 -1 -1 -1 -1 -1 -1 -1 -1 -1 -1 -1 -1 -1 -1 -1 -1 -1 -1 -1 -1 -1 -1
11 13 14 16 17 10 8 8 7 8 8 7 6 8 7 3 1 1 1 0 1 0 0 -0 -1 -1 -1 -1 -1 -1 -1 -1 -1 -1 -1 -1 -1 -1 -1 -1 -1 -1 -1 -1 -1 -1 -2 -2 -2
13 14 13 14 13 10 8 8 7 8 8 7 7 7 7 3 2 1 0 1 -0 0 -0 0 -1 -1 -1 -1 -1 -1 -1 -1 -1 -1 -1 -1 -1 -1 -1 -1 -1 -1 -1 -1 -1 -2 -2 -2 -2
14 15 16 12 13 11 9 7 8 8 8 8 6 8 6 4 2 1 1 1 0 -0 -0 0 0 -1 -1 -1 -1 -1 -1 -1 -1 -1 -1 -1 -1 -1 -1 -1 -1 -1 -2 -1 -2 -2 -2 -2 -2
13 14 15 12 12 12 8 7 7 7 7 4 4 8 7 4 2 2 1 1 2 0 0 1 0 0 0 -0 -1 -1 -1 -1 -1 -1 -1 -1 -1 -1 -1 -2 -2 -1 -2 -2 -2 -2 -2 -1 -1
13 15 16 13 11 10 8 8 6 5 6 5 5 5 4 2 2 2 2 3 3 1 1 0 0 0 0 -0 -0 -1 -1 -1 -1 -1 -1 -1 -1 -1 -1 -1 -1 -1 -1 -2 -1 -1 -2 -1 -1
12 15 14 10 8 9 7 7 7 7 7 7 6 4 3 2 3 3 4 4 3 2 1 0 0 -0 0 -1 -0 -0 -1 -1 -1 -1 -1 -0 0 0 0 -1 -1 -1 -1 -1 -0 -0 -0 0 1
14 14 11 8 7 7 7 8 6 7 9 6 6 5 4 3 3 3 3 3 3 2 1 0 0 -0 0 -0 -0 -0 -0 -0 -1 -1 -1 0 0 0 0 0 0 -0 -0 0 1 1 0 1 1
13 8 8 8 6 7 8 6 7 7 6 4 4 4 4 4 4 4 4 4 3 3 2 1 0 0 0 0 0 -0 -0 -0 0 -0 -0 0 0 0 1 1 1 1 0 1 1 1 1 1 0
13 9 7 6 7 7 6 7 7 7 5 4 4 4 4 4 4 3 3 2 3 3 3 2 1 1 1 2 1 1 1 -0 -0 0 1 1 1 1 2 2 1 1 1 1 1 0 -0 -0 -0
8 8 8 7 7 7 8 8 7 6 5 5 4 5 4 4 4 4 3 3 2 2 2 2 2 2 2 1 1 0 1 1 2 2 2 2 2 2 2 3 3 2 0 -1 -1 -0 -0 -0 -1
8 10 8 8 8 8 8 9 9 6 5 5 5 5 4 4 3 3 4 3 3 2 2 2 2 1 1 0 1 1 2 2 3 2 2 2 3 3 3 2 -0 -1 -1 -1 -1 -1 -1 -0 -0
11 10 13 10 8 8 9 11 8 6 6 7 6 6 5 5 4 3 2 2 2 1 1 1 0 0 1 2 2 2 3 3 3 3 3 3 3 2 -0 -0 -0 -1 -1 -1 -0 -0 0 0 0
14 14 15 12 8 8 9 11 8 6 6 7 7 6 6 5 4 3 2 2 2 1 1 1 1 2 3 3 3 4 4 4 4 4 3 3 1 0 -0 -0 0 1 0 -0 -0 0 0 1 1
14 15 16 13 9 10 11 10 8 7 7 7 7 6 6 6 5 3 3 2 2 2 1 2 3 3 4 4 4 5 5 4 4 5 3 1 1 1 1 2 2 1 1 1 1 1 1 1 1
13 14 14 10 10 10 11 10 9 7 7 8 7 7 6 6 4 3 3 3 4 3 2 2 3 4 5 5 5 5 5 6 5 2 1 2 1 2 3 2 2 2 2 2 1 1 2 2 1
13 13 14 12 11 9 11 10 9 8 8 8 7 7 6 6 5 4 4 4 4 4 3 3 3 4 4 4 4 5 5 5 3 3 2 2 1 2 2 2 2 2 2 2 2 2 2 2 2
13 14 14 13 10 10 11 13 11 9 7 7 6 6 6 6 6 5 5 5 6 6 4 4 3 3 4 4 5 5 6 4 4 4 3 1 1 2 2 2 2 2 2 3 2 2 3 3 3
14 11 11 11 12 14 11 15 12 10 9 8 8 7 6 6 5 4 5 5 6 6 6 6 5 5 5 4 6 7 7 6 5 4 3 2 2 1 1 1 2 2 3 3 3 3 3 3 4
11 10 11 11 13 14 14 16 13 11 12 10 8 7 6 5 5 5 5 5 5 6 6 6 6 6 5 5 6 6 5 5 5 3 3 2 2 1 1 1 1 2 3 3 3 3 3 3 4
9 11 12 13 15 16 14 15 16 13 11 9 7 7 6 6 5 5 5 6 5 5 6 6 6 6 6 6 6 5 4 5 5 4 3 3 3 2 1 1 2 2 2 2 3 3 3 3 4
11 13 17 17 17 16 14 15 14 11 10 8 7 7 6 5 5 6 6 6 6 6 6 5 5 5 6 6 6 4 4 4 3 3 3 4 3 3 2 2 3 2 2 2 2 2 3 4 4
13 13 16 18 18 16 14 15 12 9 8 8 7 9 5 6 5 6 6 6 5 5 5 5 6 6 5 6 5 4 4 3 3 3 3 3 3 3 2 2 2 2 2 3 3 3 3 4 4
12 14 13 16 16 17 16 13 9 8 8 8 8 8 7 6 6 6 6 6 6 6 4 6 5 5 5 5 4 4 4 3 3 3 3 3 3 2 3 3 4 4 3 3 3 3 3 3 3
11 11 14 15 18 19 16 15 13 10 9 9 9 8 7 6 6 6 6 6 6 6 6 5 4 4 3 3 3 4 3 3 2 3 2 2 3 3 3 4 4 3 3 3 3 4 3 4 4
12 14 14 14 16 18 18 15 11 10 9 8 8 7 7 7 7 7 6 6 6 7 6 5 5 5 4 4 3 4 4 3 3 3 3 4 4 4 4 4 4 3 3 4 4 4 4 4 4
11 13 13 16 17 17 16 16 10 9 9 8 8 7 6 6 6 6 6 6 7 8 7 6 5 5 4 4 4 4 4 3 3 4 5 5 5 4 4 4 4 4 5 5 5 5 5 5 5